User: anonymous
Location: Unspecified
(0.0000°N, 0.0000°E)
Time: 23:57:54
(UTC+00:00)
Language:

OPTUS 1C - Orbit

View from above orbital plane
View from above orbital plane
View from above satellite
View from above satellite

Ground track
Ground track

The orbit data is extracted from the following two-line orbital elements,

1 27831U 03028B   14107.48718296  .00000000  00000-0  10000-3 0   807
2 27831 000.0270 128.9289 0002665 269.4675 138.5223 01.00268029 39766
Epoch (UTC): 17 April 2014 11:41:32
Eccentricity: 0.0002665
inclination: 0.0270°
perigee height: 35776 km
apogee height: 35798 km
right ascension of ascending node: 128.9289°
argument of perigee: 269.4675°
revolutions per day: 1.00268029
mean anomaly at epoch: 138.5223°
orbit number at epoch: 3976

The dashed part of the orbit path shows where the satellite is in the earth's shadow,  

DLR